Find Starlink 36773

NORAD ID: 67801 Int'l Des: 2026-032 Owner: SPXS Country: US Constellation: starlink operational
LEOCIRCULARRETROGRADE

現在のビュー

3D地球を読み込み中...

Starlink 36773について

説明を読み込み中...

次回通過

Passes for default location (London). Set your location on the main map for personalized predictions.

高度履歴

Loading altitude history...

軌道要素

1 67801U 26032E 26146.51605556 .00015845 00000-0 49207-3 0 9995
2 67801 97.2849 334.5269 0001742 87.6594 272.4848 15.33445828 16889
Epoch: May 26, 2026 • Age: 9 hours

現在のステータス

高度 467.7 km
速度 7.63 km/s
衛星直下点 7.57°N, 122.25°E
打ち上げ日 Feb 15, 2026
運用期間 0.2 years
タイプ internet

技術仕様

分類 Payload
質量 575.00 kg
乾燥質量 530.00 kg
総質量 575.00 kg
長さ 0.30 m
直径 4.10 m
スパン 29.00 m
形状 Box + pan
製造者 SPXS
バスタイプ Starlink V2MO
フェーズステータス In Orbit
所有者/国 SPXS/US

Most Searched